GENESIS 1

Last updated on Thu Jul 03 2025 00:02:15 GMT+0000 (Coordinated Universal Time)

1 29252U 06029A 25183.69207012 .07669060 80586-5 17140-3 0 9995 2 29252 64.4742 276.9705 0017693 300.1504 154.0455 16.44812741 50045

Satellite not in orbit

GENESIS 1